CW0121 Weather Reports


Display with metric or nautical units.
time (UTC)temp
F
wind
direction
speed
MPH
gust
MPH
rain 1hr
in
rain 24hr
in
rain mn
in
humidity
%
barometer
mb
20260504050504 54 214 9.0 13.0 0.00 0.00 0.00 51 1000.1
20260504050020 54 213 10.0 13.0 0.00 0.00 0.00 51 1000.1
20260504045506 54 212 10.0 13.0 0.00 0.00 0.00 50 1000.1
20260504045007 54 216 10.0 13.0 0.00 0.00 0.00 50 1000.1
20260504044535 54 216 8.0 11.0 0.00 0.00 0.00 50 998.0
20260504044525 54 217 8.0 11.0 0.00 0.00 0.00 50 1000.2
20260504044006 54 212 8.0 12.0 0.00 0.00 0.00 49 1000.2
20260504043503 54 217 8.0 12.0 0.00 0.00 0.00 49 1000.3
20260504043038 54 214 8.0 11.0 0.00 0.00 0.00 49 998.2
20260504043009 54 215 8.0 12.0 0.00 0.00 0.00 48 1000.4
20260504042504 55 227 8.0 12.0 0.00 0.00 0.00 48 1000.5
20260504042004 55 212 9.0 13.0 0.00 0.00 0.00 47 1000.6
20260504041524 55 205 8.0 13.0 0.00 0.00 0.00 47 998.5
20260504041512 55 214 9.0 13.0 0.00 0.00 0.00 47 1000.7
20260504041004 55 221 8.0 12.0 0.00 0.00 0.00 47 1000.7
20260504040505 55 212 8.0 12.0 0.00 0.00 0.00 46 1000.8
20260504040023 55 224 8.0 12.0 0.00 0.00 0.00 46 998.8
20260504040017 55 204 9.0 12.0 0.00 0.00 0.00 46 1001.0
20260504035505 55 217 8.0 11.0 0.00 0.00 0.00 46 1001.1
20260504035007 55 212 7.0 10.0 0.00 0.00 0.00 45 1001.2
20260504034520 55 203 7.0 11.0 0.00 0.00 0.00 45 1001.2
20260504034006 56 214 8.0 11.0 0.00 0.00 0.00 44 1001.3
20260504033506 55 213 9.0 11.0 0.00 0.00 0.00 44 1001.4
20260504033022 55 214 8.0 10.0 0.00 0.00 0.00 44 1001.5
20260504033017 55 207 8.0 10.0 0.00 0.00 0.00 44 999.3
20260504032507 55 214 7.0 10.0 0.00 0.00 0.00 44 1001.6
20260504032003 56 216 7.0 10.0 0.00 0.00 0.00 44 1001.7
20260504031518 56 193 7.0 10.0 0.00 0.00 0.00 44 999.5
20260504031508 56 207 8.0 10.0 0.00 0.00 0.00 44 1001.7
20260504031003 56 200 7.0 10.0 0.00 0.00 0.00 43 1001.8
20260504030505 56 183 8.0 11.0 0.00 0.00 0.00 42 1001.9
20260504030014 56 194 7.0 11.0 0.00 0.00 0.00 41 999.7
20260504025505 57 213 9.0 11.0 0.00 0.00 0.00 40 1001.9
20260504025003 57 209 8.0 10.0 0.00 0.00 0.00 40 1001.9
20260504024519 57 205 8.0 10.0 0.00 0.00 0.00 40 1002.1
20260504024512 57 215 7.0 10.0 0.00 0.00 0.00 41 999.8
20260504024006 57 196 8.0 10.0 0.00 0.00 0.00 40 1002.1
20260504023506 57 204 7.0 11.0 0.00 0.00 0.00 40 1002.1
20260504023025 57 217 7.0 11.0 0.00 0.00 0.00 39 1002.3
20260504023009 57 188 7.0 11.0 0.00 0.00 0.00 40 1000.0
20260504022506 58 215 7.0 11.0 0.00 0.00 0.00 39 1002.3
20260504022009 58 223 7.0 9.0 0.00 0.00 0.00 39 1002.4
20260504021527 58 201 7.0 8.0 0.00 0.00 0.00 39 1002.4
20260504021506 58 214 6.0 8.0 0.00 0.00 0.00 39 1000.2
20260504021008 58 208 6.0 9.0 0.00 0.00 0.00 39 1002.4
20260504020502 59 197 6.0 9.0 0.00 0.00 0.00 38 1002.5
20260504020013 59 212 6.0 8.0 0.00 0.00 0.00 37 1002.4
20260504020005 59 212 6.0 8.0 0.00 0.00 0.00 38 1000.4
20260504015503 59 198 6.0 8.0 0.00 0.00 0.00 37 1002.5
20260504015003 60 214 6.0 8.0 0.00 0.00 0.00 36 1002.7
20260504014513 60 215 5.0 8.0 0.00 0.00 0.00 36 1002.8
20260504014503 60 217 5.0 7.0 0.00 0.00 0.00 36 1000.7
20260504014008 61 220 5.0 8.0 0.00 0.00 0.00 35 1003.0
20260504013506 62 229 6.0 8.0 0.00 0.00 0.00 34 1003.1
20260504013032 62 231 5.0 7.0 0.00 0.00 0.00 34 1003.1
20260504013001 62 231 5.0 7.0 0.00 0.00 0.00 34 1001.0
20260504012506 63 231 4.0 8.0 0.00 0.00 0.00 33 1003.3
20260504012011 64 229 6.0 11.0 0.00 0.00 0.00 32 1003.5
20260504011600 65 238 6.0 11.0 0.00 0.00 0.00 31 1001.3
20260504011522 65 229 7.0 11.0 0.00 0.00 0.00 30 1003.5
20260504011012 65 226 9.0 11.0 0.00 0.00 0.00 28 1003.6
20260504010510 66 243 9.0 11.0 0.00 0.00 0.00 28 1003.8
20260504010056 66 215 9.0 13.0 0.00 0.00 0.00 27 1001.7
20260504010026 67 240 9.0 13.0 0.00 0.00 0.00 27 1003.8
20260504005508 67 236 10.0 13.0 0.00 0.00 0.00 26 1003.9
20260504005004 67 248 10.0 16.0 0.00 0.00 0.00 25 1003.9
20260504004554 68 237 11.0 16.0 0.00 0.00 0.00 25 1001.9
20260504004511 68 252 11.0 16.0 0.00 0.00 0.00 24 1004.1
20260504004002 68 244 12.0 16.0 0.00 0.00 0.00 24 1004.3
20260504003505 69 252 12.0 19.0 0.00 0.00 0.00 23 1004.4
20260504003051 69 251 11.0 21.0 0.00 0.00 0.00 23 1002.2
20260504003026 69 240 12.0 21.0 0.00 0.00 0.00 23 1004.4
20260504002506 70 233 13.0 21.0 0.00 0.00 0.00 22 1004.5
20260504002007 70 231 14.0 21.0 0.00 0.00 0.00 22 1004.6
20260504001553 71 274 10.0 18.0 0.00 0.00 0.00 22 1002.3
20260504001520 71 214 11.0 18.0 0.00 0.00 0.00 21 1004.6
20260504001006 71 264 11.0 20.0 0.00 0.00 0.00 22 1004.7
20260504000507 71 231 14.0 20.0 0.00 0.00 0.00 21 1004.7
20260504000052 71 269 12.0 18.0 0.00 0.00 0.00 21 1002.5
20260504000023 71 269 11.0 17.0 0.00 0.00 0.00 20 1004.8
20260503235508 71 270 7.0 26.0 0.00 0.00 0.00 20 1004.9
20260503235009 71 285 8.0 26.0 0.00 0.00 0.00 20 1005.0
20260503234546 71 247 17.0 26.0 0.00 0.00 0.00 20 1002.7
20260503234524 72 283 16.0 21.0 0.00 0.00 0.00 19 1005.0
20260503234009 72 266 4.0 17.0 0.00 0.00 0.00 21 1005.1
20260503233505 72 283 8.0 17.0 0.00 0.00 0.00 21 1005.2
20260503233043 72 235 9.0 20.0 0.00 0.00 0.00 20 1002.9
20260503233010 72 282 9.0 20.0 0.00 0.00 0.00 19 1005.2
20260503232503 72 262 11.0 20.0 0.00 0.00 0.00 21 1005.3
20260503232006 72 236 7.0 17.0 0.00 0.00 0.00 21 1005.4
20260503231542 72 255 8.0 17.0 0.00 0.00 0.00 22 1002.9
20260503231519 72 240 8.0 18.0 0.00 0.00 0.00 23 1005.3
20260503231007 72 221 9.0 22.0 0.00 0.00 0.00 22 1005.4
20260503230509 72 304 15.0 22.0 0.00 0.00 0.00 21 1005.5
20260503230044 72 285 6.0 18.0 0.00 0.00 0.00 21 1003.2
20260503230022 72 288 5.0 18.0 0.00 0.00 0.00 21 1005.5
20260503225506 72 267 9.0 18.0 0.00 0.00 0.00 21 1005.6
20260503225009 72 273 8.0 18.0 0.00 0.00 0.00 23 1005.6
20260503224540 72 270 4.0 18.0 0.00 0.00 0.00 22 1003.3
20260503224528 72 285 6.0 18.0 0.00 0.00 0.00 22 1005.7
20260503224012 72 238 11.0 18.0 0.00 0.00 0.00 21 1005.6
20260503223510 72 236 10.0 18.0 0.00 0.00 0.00 22 1005.7
20260503223036 72 236 8.0 17.0 0.00 0.00 0.00 21 1003.5
20260503223027 72 257 8.0 17.0 0.00 0.00 0.00 21 1005.8
20260503222510 72 293 8.0 17.0 0.00 0.00 0.00 21 1005.9
20260503222004 72 252 6.0 15.0 0.00 0.00 0.00 22 1005.9
20260503221535 72 293 5.0 15.0 0.00 0.00 0.00 22 1003.7
20260503221512 72 289 5.0 15.0 0.00 0.00 0.00 23 1006.0
20260503221007 72 260 8.0 15.0 0.00 0.00 0.00 22 1006.3
20260503220508 72 271 5.0 14.0 0.00 0.00 0.00 24 1006.4
20260503220032 72 236 5.0 14.0 0.00 0.00 0.00 22 1004.0
20260503220021 72 273 6.0 14.0 0.00 0.00 0.00 23 1006.6
20260503215506 71 240 8.0 18.0 0.00 0.00 0.00 23 1006.6
20260503215007 72 264 6.0 18.0 0.00 0.00 0.00 24 1006.7
20260503214539 71 270 9.0 18.0 0.00 0.00 0.00 23 1004.4
20260503214523 71 251 11.0 18.0 0.00 0.00 0.00 23 1006.8
20260503214009 72 281 4.0 20.0 0.00 0.00 0.00 24 1006.9
20260503213510 71 271 5.0 20.0 0.00 0.00 0.00 26 1007.0
20260503213025 71 258 5.0 18.0 0.00 0.00 0.00 25 1004.7
20260503213023 71 252 5.0 18.0 0.00 0.00 0.00 24 1007.0
20260503212508 71 265 8.0 18.0 0.00 0.00 0.00 24 1007.2
20260503212003 71 253 10.0 18.0 0.00 0.00 0.00 26 1007.3
20260503211523 71 297 4.0 17.0 0.00 0.00 0.00 25 1005.1
20260503211514 71 224 5.0 17.0 0.00 0.00 0.00 25 1007.3
20260503211004 71 306 3.0 16.0 0.00 0.00 0.00 26 1007.5
20260503210507 71 200 7.0 16.0 0.00 0.00 0.00 25 1007.5
20260503210020 70 244 9.0 14.0 0.00 0.00 0.00 25 1005.3
20260503210017 70 292 9.0 14.0 0.00 0.00 0.00 25 1007.5
20260503205508 71 324 5.0 12.0 0.00 0.00 0.00 23 1007.5
20260503205006 71 291 4.0 17.0 0.00 0.00 0.00 26 1007.6
20260503204522 71 249 6.0 17.0 0.00 0.00 0.00 29 1007.6
20260503204518 71 271 6.0 17.0 0.00 0.00 0.00 29 1005.6
20260503204010 70 229 10.0 15.0 0.00 0.00 0.00 25 1007.7
20260503203508 70 236 7.0 15.0 0.00 0.00 0.00 25 1007.8
20260503203031 70 276 2.0 13.0 0.00 0.00 0.00 28 1007.8
20260503203016 70 271 2.0 11.0 0.00 0.00 0.00 29 1005.8
20260503202511 70 307 4.0 14.0 0.00 0.00 0.00 28 1008.0
20260503202005 70 291 4.0 14.0 0.00 0.00 0.00 26 1008.2
20260503201513 70 306 4.0 12.0 0.00 0.00 0.00 28 1006.3
20260503201509 70 269 4.0 12.0 0.00 0.00 0.00 29 1008.4
20260503201004 70 264 7.0 11.0 0.00 0.00 0.00 26 1008.4
20260503200503 70 306 4.0 11.0 0.00 0.00 0.00 28 1008.5
20260503200013 70 263 3.0 11.0 0.00 0.00 0.00 27 1008.7
20260503195504 69 51 3.0 10.0 0.00 0.00 0.00 26 1008.8
20260503195008 70 304 3.0 8.0 0.00 0.00 0.00 30 1008.9
20260503194518 69 299 4.0 15.0 0.00 0.00 0.00 29 1009.0
20260503194508 69 315 4.0 15.0 0.00 0.00 0.00 26 1006.8
20260503194007 69 6 4.0 15.0 0.00 0.00 0.00 29 1009.0
20260503193509 68 321 7.0 12.0 0.00 0.00 0.00 29 1009.1
20260503193020 69 306 6.0 11.0 0.00 0.00 0.00 28 1009.2
20260503193007 69 329 5.0 11.0 0.00 0.00 0.00 28 1007.1
20260503192506 69 320 3.0 10.0 0.00 0.00 0.00 29 1009.3
20260503192007 68 272 4.0 13.0 0.00 0.00 0.00 29 1009.6
20260503191525 68 311 6.0 13.0 0.00 0.00 0.00 29 1009.5
20260503191514 68 354 6.0 13.0 0.00 0.00 0.00 29 1007.4
20260503191010 67 13 4.0 13.0 0.00 0.00 0.00 30 1009.7
20260503190504 67 292 7.0 14.0 0.00 0.00 0.00 31 1009.8
20260503190010 67 294 5.0 14.0 0.00 0.00 0.00 30 1009.9
20260503190006 67 289 5.0 14.0 0.00 0.00 0.00 30 1007.7
20260503185503 67 323 7.0 13.0 0.00 0.00 0.00 30 1009.9
20260503185004 67 335 3.0 8.0 0.00 0.00 0.00 31 1009.9
20260503184518 67 252 3.0 11.0 0.00 0.00 0.00 33 1010.0
20260503184503 67 252 3.0 11.0 0.00 0.00 0.00 34 1007.9
20260503184003 66 316 5.0 11.0 0.00 0.00 0.00 29 1010.1
20260503183508 66 293 6.0 12.0 0.00 0.00 0.00 30 1010.1
20260503183102 66 300 4.0 12.0 0.00 0.00 0.00 32 1008.3
20260503183024 66 295 7.0 12.0 0.00 0.00 0.00 30 1010.3
20260503182507 66 283 4.0 9.0 0.00 0.00 0.00 32 1010.3
20260503182014 66 24 4.0 9.0 0.00 0.00 0.00 31 1010.4
20260503181614 65 308 2.0 13.0 0.00 0.00 0.00 35 1008.5
20260503181524 65 265 4.0 13.0 0.00 0.00 0.00 31 1010.6
20260503181008 65 355 7.0 13.0 0.00 0.00 0.00 30 1010.9
20260503180509 65 306 5.0 16.0 0.00 0.00 0.00 29 1011.0
20260503180116 66 306 7.0 16.0 0.00 0.00 0.00 29 1008.9
20260503180031 66 43 8.0 16.0 0.00 0.00 0.00 29 1011.1
20260503175513 65 323 4.0 15.0 0.00 0.00 0.00 30 1011.1
20260503175002 65 15 8.0 15.0 0.00 0.00 0.00 28 1011.2
20260503174559 65 330 5.0 11.0 0.00 0.00 0.00 29 1009.3
20260503174512 65 316 6.0 12.0 0.00 0.00 0.00 29 1011.2
20260503174005 64 299 4.0 16.0 0.00 0.00 0.00 29 1011.2
20260503173506 64 307 9.0 16.0 0.00 0.00 0.00 28 1011.3
20260503173103 64 272 3.0 12.0 0.00 0.00 0.00 29 1009.3
20260503173015 64 42 5.0 13.0 0.00 0.00 0.00 28 1011.3
20260503172506 64 309 8.0 15.0 0.00 0.00 0.00 28 1011.4
20260503172010 63 319 4.0 15.0 0.00 0.00 0.00 27 1011.3
20260503171553 64 311 10.0 15.0 0.00 0.00 0.00 29 1009.4
20260503171522 64 311 7.0 14.0 0.00 0.00 0.00 27 1011.4
20260503171008 64 271 5.0 12.0 0.00 0.00 0.00 29 1011.4
20260503170507 63 318 7.0 12.0 0.00 0.00 0.00 31 1011.4
20260503151006 57 300 3.0 6.0 0.00 0.00 0.00 40 1012.3
20260503150506 57 335 3.0 6.0 0.00 0.00 0.00 41 1012.2
20260503131010 46 311 4.0 6.0 0.00 0.00 0.00 72 1012.7
20260503130507 46 324 3.0 5.0 0.00 0.00 0.00 74 1012.6
20260503110502 41 323 3.0 6.0 0.00 0.00 0.00 80 1011.3
20260503100111 42 313 4.0 8.0 0.00 0.00 0.00 80 1009.9
20260503090507 43 315 2.0 3.0 0.00 0.00 0.00 78 1011.0
20260503081543 45 315 1.0 3.0 0.00 0.00 0.00 77 1009.0
20260503081515 45 315 2.0 3.0 0.00 0.00 0.00 76 1010.9
20260503081006 45 309 2.0 3.0 0.00 0.00 0.00 76 1010.8
20260503080508 45 309 2.0 4.0 0.00 0.00 0.00 76 1010.8
20260503072505 48 321 2.0 6.0 0.00 0.00 0.00 67 1010.0
20260503072003 49 338 3.0 9.0 0.00 0.00 0.00 66 1010.0
20260503071525 49 349 3.0 9.0 0.00 0.00 0.00 66 1008.3
20260503071514 49 347 4.0 9.0 0.00 0.00 0.00 66 1009.9
20260503071002 49 339 4.0 9.0 0.00 0.00 0.00 65 1009.9
20260503070507 49 343 4.0 9.0 0.00 0.00 0.00 65 1009.8